Location: *
(33.6842°N, 117.7925°W)
Time: 11:22:49
(UTC+00:00)

Cosmos 1726 - Pass Details

Date: 21 October 2019
Orbit: 483 x 500 km, 82.5° (Epoch: 20 November)

Event Time Altitude Azimuth Distance (km) Brightness Sun altitude
Rises 12:37:43 0° 359° (N) 2,559 5.7 -18.0°
Reaches altitude 10° 12:39:51 10° 4° (N) 1,677 4.8 -17.5°
Maximum altitude 12:43:27 53° 82° (E) 604 2.9 -16.8°
Drops below altitude 10° 12:47:02 10° 160° (SSE) 1,673 5.1 -16.0°
Sets 12:49:10 0° 165° (SSE) 2,553 6.0 -15.6°
